Regional Weather Roundup
Issued by NWS

Home | Current Version | Previous Version | Text Only | Print | Product List | Glossary Off
Versions: 1 2 3 4 5 6 7 8 9 10 11 12 13 14 15 16 17 18 19 20 21 22 23 24 25 26 27

000
ASUS45 KTFX 231810
RWRMT
MONTANA REGIONAL WEATHER ROUNDUP
NATIONAL WEATHER SERVICE GREAT FALLS MT
1200 PM MDT TUE MAY 23 2017

NOTE: "FAIR" INDICATES FEW OR NO CLOUDS BELOW 12000 FEET WITH NO
SIGNIFICANT WEATHER AND/OR OBSTRUCTIONS TO VISIBILITY.

MTZ001>007-043-231900-
WEST OF THE DIVIDE

CITY           SKY/WX    TMP DP  RH WIND       PRES   REMARKS
KALISPELL      SUNNY     71  46  40 S7        30.01F
MISSOULA       SUNNY     68  45  43 CALM      30.07F
BUTTE          SUNNY     68  32  26 N6        30.16F
MULLAN PASS    SUNNY     61  36  39 VRB3      30.16F
ANACONDA         N/A     72  36  26 S13G21    30.11F
DEER LODGE       N/A     68  45  42 N3        30.13F
EUREKA           N/A     68  46  45 W3        29.98F
HAMILTON         N/A     72  46  40 NE5       30.06F
PLAINS           N/A     71  50  47 NW2       30.02F
RONAN            N/A     72  48  42 SW3       30.08F
$$

MTZ008-052>055-231900-
SOUTHWEST MONTANA

CITY           SKY/WX    TMP DP  RH WIND       PRES   REMARKS
BOZEMAN        SUNNY     68  41  37 VRB3      30.13F
DILLON         SUNNY     66  40  38 SW8       30.15F
W YELLOWSTONE  SUNNY     61  30  31 VRB6      30.24F
ENNIS          SUNNY     66  36  32 VRB5      30.21F
THREE FORKS      N/A     67  44  43 S1        30.11F
TWIN BRIDGES     N/A     65  40  39 E3        30.13F
$$

MTZ009-010-012-014-046-048-049-054-231900-
EAST SLOPES AND CENTRAL MONTANA

CITY           SKY/WX    TMP DP  RH WIND       PRES   REMARKS
CUT BANK       MOSUNNY   75  41  29 SW8       29.98F
GREAT FALLS    SUNNY     74  41  30 SW10      30.02F
MALMSTROM AFB  SUNNY     73  47  39 SW10G20   30.02F
HELENA         SUNNY     67  46  47 VRB3      30.08F
CHOTEAU          N/A     75  39  27 W8G16     30.03F
CONRAD           N/A     76  57  51 S9        30.02F
$$

MTZ011-013-016-021-045-047-050-051-231900-
NORTH CENTRAL MONTANA

CITY           SKY/WX    TMP DP  RH WIND       PRES   REMARKS
HAVRE          SUNNY     73  34  23 VRB3      29.99F
LEWISTOWN      SUNNY     68  37  32 CALM      30.08F
N BAR RANCH      N/A     64  37  36 S20       30.13F
CHINOOK          N/A     72  32  23 S5        30.00F
FORT BENTON      N/A    N/A N/A N/A MISG      30.02F
$$

MTZ017>020-022>027-061-062-231900-
NORTHEAST MONTANA

CITY           SKY/WX    TMP DP  RH WIND       PRES   REMARKS
GLASGOW        PTSUNNY   69  32  25 S9        30.09F
JORDAN           N/A     67  28  23 VRB7      30.10F
SIDNEY         SUNNY     66  32  28 W6        30.12F
WOLF POINT     SUNNY     71  26  18 VRB5      30.09F
MALTA          SUNNY     70  34  26 S12       30.06F
PLENTYWOOD       N/A     66  32  28 NW3       30.09F
POPLAR           N/A     66  30  26 N5        30.10F
SCOBEY           N/A     67  32  27 SE2       30.08F
$$

MTZ028>42-056>058-231900-
SOUTHCENTRAL AND SOUTHEAST MONTANA

CITY           SKY/WX    TMP DP  RH WIND       PRES   REMARKS
BAKER          SUNNY     63  35  35 N12G18    30.15F
BILLINGS       MOSUNNY   65  39  38 VRB6      30.13F
LIVINGSTON     CLOUDY    69  42  37 W12       30.12F
MILES CITY     SUNNY     66  31  27 VRB3      30.13F
BIG TIMBER     SUNNY     64  46  52 E7        30.15F
EKALAKA          N/A     60  33  36 N10       30.12F
FORSYTH          N/A     66  32  28 S3        30.13F
LAUREL           N/A     65  39  38 SW2       30.11F
ROUNDUP          N/A     67  34  29 S8        30.02F
$$

REGIONAL REPORTS...DAKOTAS

CITY           SKY/WX    TMP DP  RH WIND       PRES   REMARKS
WILLISTON      SUNNY     68  35  29 E6        30.12F
MINOT          SUNNY     65  35  33 N16G22    30.10F
DICKINSON      SUNNY     61  32  33 N14       30.12S
BEACH            N/A     63  30  29 NE12G20   30.16F
TIOGA            N/A     63  28  27 N8        30.14F
WATFORD CITY     N/A     64  32  29 NE8G16    30.12F
BISMARCK       PTSUNNY   63  36  36 N21G35    30.08F
GRAND FORKS    CLOUDY    59  44  57 NE18      30.00F
FARGO          CLOUDY    52  45  77 N18       29.96S
BUFFALO SD       N/A     63  34  33 N18G25    30.07F
RAPID CITY     PTSUNNY   60  35  39 N22G33    30.11F
$$

REGIONAL REPORTS...WYOMING/IDAHO/WASHINGTON

CITY           SKY/WX    TMP DP  RH WIND       PRES   REMARKS
GILLETTE       PTSUNNY   58  35  42 N9        30.17F
SHERIDAN       SUNNY     63  37  38 VRB5      30.17F
BUFFALO WY     SUNNY     59  34  39 NE12      30.20F
YELLOWSTONE LA   N/A     46  29  51 SE6       30.31F
IDAHO FALLS    SUNNY     69  37  30 N3        30.19F
SALMON         SUNNY     64  43  45 CALM      30.11F
BOISE          SUNNY     77  42  28 S6        30.10F
SPOKANE        MOSUNNY   76  45  33 S9        30.00F
$$

REGIONAL REPORTS...ALBERTA

CITY           SKY/WX    TMP DP  RH WIND       PRES   REMARKS
EDMONTON       MOSUNNY   77  43  29 SW7       29.71F
CALGARY        PTSUNNY   75  32  20 SW13G18   29.86F
LETHBRIDGE     PTSUNNY   77  41  27 W21G28    29.88F
MEDICINE HAT   PTSUNNY   77  37  24 S24G31    29.89F
WATERTON GATE    N/A     68  37  32 SW20G29     N/A
MILK RIVER       N/A     75  45  33 S18         N/A
$$

REGIONAL REPORTS...SASKATCHEWAN

CITY           SKY/WX    TMP DP  RH WIND       PRES   REMARKS
REGINA         PTSUNNY   70  30  23 E3        30.04F
SASKATOON      CLOUDY    70  34  26 S16       29.96F
CYPRESS HILLS    N/A     63  32  31 S14G21      N/A
VAL MARIE        N/A     66  27  22 S15         N/A
ROCKGLEN         N/A     66  32  28 S9G17       N/A
ASSINIBOIA       N/A     79  39  24 S12         N/A
$$




USA.gov is the U.S. government's official web portal to all federal, state and local government web resources and services.